User: anonymous   Login
Location: Castelbiague
(43.0361°N, 0.9246°E)
Time: 09:36:13
(UTC+00:00)
Language:

Cosmos 2322 Rocket - Orbit

View from above orbital plane
View from above orbital plane
View from above satellite
View from above satellite

Ground track
Ground track

The orbit data is extracted from the following two-line orbital elements,

1 23705U 95058B   21263.74878124  .00000243  00000-0  14966-3 0  9997
2 23705  71.0248   3.1828 0010414  84.5612 275.6699 14.15151723337095
Epoch (UTC): 20 September 2021 17:58:14
Eccentricity: 0.0010414
inclination: 71.0248°
perigee height: 834 km
apogee height: 849 km
right ascension of ascending node: 3.1828°
argument of perigee: 84.5612°
revolutions per day: 14.15151723
mean anomaly at epoch: 275.6699°
orbit number at epoch: 33709

The dashed part of the orbit path shows where the satellite is in the earth's shadow,  

DLR